EW6519 Weather Reports


Display with metric or nautical units.
time (UTC)temp
F
wind
direction
speed
MPH
gust
MPH
rain 1hr
in
rain 24hr
in
rain mn
in
humidity
%
barometer
mb
20260504224528 76 228 2.0 16.0 0.00 0.00 0.00 46 1005.1
20260504223027 76 225 5.0 14.0 0.00 0.00 0.00 45 1005.2
20260504221525 77 197 4.0 17.0 0.00 0.00 0.00 45 1005.2
20260504220027 78 135 1.0 12.0 0.00 0.00 0.00 46 1005.3
20260504214524 77 256 1.0 8.0 0.00 0.00 0.00 47 1005.4
20260504213021 77 225 3.0 16.0 0.00 0.00 0.00 47 1005.5
20260504211517 77 236 0.0 2.0 0.00 0.00 0.00 49 1005.9
20260504210016 78 240 0.0 9.0 0.00 0.00 0.00 47 1006.0
20260504204516 78 219 0.0 8.0 0.00 0.00 0.00 47 1006.2
20260504203021 78 260 2.0 9.0 0.00 0.00 0.00 47 1006.3
20260504201509 76 198 3.0 10.0 0.00 0.00 0.00 50 1006.5
20260504200007 76 238 0.0 10.0 0.00 0.00 0.00 50 1006.8
20260504194508 76 262 4.0 12.0 0.00 0.00 0.00 49 1007.0
20260504193006 76 349 2.0 12.0 0.00 0.00 0.00 51 1007.3
20260504191601 74 226 3.0 8.0 0.00 0.00 0.00 53 1007.5
20260504190125 74 158 2.0 9.0 0.00 0.00 0.00 55 1007.8
20260504184557 71 247 3.0 12.0 0.00 0.00 0.00 58 1007.9
20260504183053 71 252 3.0 14.0 0.00 0.00 0.00 57 1008.0
20260504181557 71 278 3.0 10.0 0.00 0.00 0.00 58 1007.7
20260504180137 71 255 1.0 12.0 0.00 0.00 0.00 59 1007.5
20260504174550 70 252 3.0 13.0 0.00 0.00 0.00 59 1007.6
20260504173058 69 92 3.0 14.0 0.00 0.00 0.00 60 1007.6
20260504171546 69 234 0.0 15.0 0.00 0.00 0.00 60 1007.6
20260504140113 61 124 0.0 8.0 0.00 0.00 0.00 68 1008.4
20260504081507 52 241 0.0 6.0 0.00 0.00 0.00 65 1009.9
20260504050105 53 137 1.0 7.0 0.00 0.00 0.00 59 1011.9
20260504044539 53 223 0.0 0.0 0.00 0.00 0.00 60 1012.0
20260504043038 53 164 0.0 0.0 0.00 0.00 0.00 60 1012.0
20260504041537 53 191 1.0 7.0 0.00 0.00 0.00 60 1012.2
20260504040039 53 163 0.0 1.0 0.00 0.00 0.00 60 1012.3
20260504034542 53 158 0.0 0.0 0.00 0.00 0.00 61 1012.6
20260504033033 53 226 0.0 0.0 0.00 0.00 0.00 62 1012.7
20260504031535 53 162 0.0 0.0 0.00 0.00 0.00 63 1012.7
20260504030039 53 158 0.0 0.0 0.00 0.00 0.00 64 1012.7
20260504024530 54 193 0.0 0.0 0.00 0.00 0.00 63 1012.8
20260504023030 54 151 0.0 0.0 0.00 0.00 0.00 64 1012.8
20260504021530 54 123 0.0 0.0 0.00 0.00 0.00 63 1012.7
20260504020033 54 146 0.0 0.0 0.00 0.00 0.00 61 1012.6
20260504014529 54 160 0.0 5.0 0.00 0.00 0.00 63 1012.6
20260504013028 55 148 0.0 0.0 0.00 0.00 0.00 63 1012.5
20260504011528 55 219 0.0 0.0 0.00 0.00 0.00 60 1012.3
20260504010027 57 188 1.0 8.0 0.00 0.00 0.00 54 1012.7
20260504004528 58 238 1.0 6.0 0.00 0.00 0.00 48 1012.8
20260504003026 59 240 0.0 6.0 0.00 0.00 0.00 46 1012.6
20260504001525 59 154 1.0 7.0 0.00 0.00 0.00 44 1012.5
20260504000024 59 170 0.0 6.0 0.00 0.00 0.00 43 1012.3
20260503234527 60 120 0.0 8.0 0.00 0.00 0.00 42 1012.4
20260503233024 60 122 0.0 6.0 0.00 0.00 0.00 41 1012.3
20260503231521 60 239 0.0 8.0 0.00 0.00 0.00 41 1012.8
20260503230018 60 167 1.0 11.0 0.00 0.00 0.00 41 1013.0